Regional Weather Roundup
Issued by NWS Green Bay, WI

Home | Current Version | Previous Version | Text Only | Print | Product List | Glossary On
Versions: 1 2 3 4 5 6 7 8 9 10 11 12 13 14 15 16 17 18 19 20 21 22 23 24 25 26 27 28 29 30 31 32 33 34 35 36 37 38 39 40 41 42 43 44 45 46 47 48 49 50
000
ASUS43 KGRB 241310
RWRGRB

NORTH-CENTRAL AND NORTHEAST WISCONSIN REGIONAL WEATHER ROUNDUP
NATIONAL WEATHER SERVICE GREEN BAY WI
800 AM CDT FRI OCT 24 2014

WIZ005-009-010>012-018-019-241400-
NORTH CENTRAL WISCONSIN

CITY           SKY/WX    TMP DP  RH WIND       PRES   REMARKS
IRONWOOD       CLOUDY    46  46 100 S9        29.90S
MANITOWISH WTR FOG       44  44 100 S6        29.96R VSB 3/4
ARBOR VITAE    FOG       44  43  97 S6        29.98R VSB 1/2
EAGLE RIVER    FOG       42  42 100 CALM      29.97R VSB 1/4
LAND O LAKES   FOG       44  44 100 SW6       29.97S VSB 1/4
RHINELANDER    FOG       43  42  97 SW5       29.99S VSB 1/4
PHILLIPS       FOG       44  44 100 S3        29.97R VSB 1/2
ANTIGO         FOG       42  42 100 CALM      29.99F VSB<1/4
TOMAHAWK       FOG       43  42  97 CALM      29.99S VSB 1/2
MERRILL        FOG       43  43 100 SW3       30.00R VSB 1/2
$$

WIZ013-073-241400-
NORTHEAST WISCONSIN

CITY           SKY/WX    TMP DP  RH WIND       PRES   REMARKS
IRON MOUNTAIN  FOG       43  42  97 SW7       29.98S VSB 1/4
MARINETTE      CLOUDY    46  45  93 W5        30.01R
OCONTO         CLOUDY    46  46 100 SW5       30.01S
$$

WIZ017-030-035>037-045-241400-
CENTRAL WISCONSIN

CITY           SKY/WX    TMP DP  RH WIND       PRES   REMARKS
MEDFORD        FOG       43  43 100 S6        29.98S VSB<1/4
WAUSAU         FOG       44  44 100 SW3       29.99F VSB 3/4
MOSINEE        FOG       45  45 100 S5        30.01F VSB 1/4
MARSHFIELD     FOG       46  45  96 S7        29.99F VSB<1/4
WISC RAPIDS    FOG       46  45  96 S5        30.03F VSB 1/4
STEVENS POINT  FOG       44  44 100 S5        30.02S VSB<1/4
WAUPACA        CLOUDY    48  47  96 SW5       30.03S FOG
SHAWANO        CLOUDY    47  46  95 CALM      30.02S FOG
CLINTONVILLE   CLOUDY    46  45  93 CALM      30.02S FOG
$$

WIZ038-039-048-051-241400-
FOX VALLEY

CITY           SKY/WX    TMP DP  RH WIND       PRES   REMARKS
NWS GREEN BAY  CLOUDY    48  47  96 SW6       30.03R FOG
APPLETON         N/A     46  46 100 VRB6      30.03S FOG
OSHKOSH        CLOUDY    48  47  96 W5        30.03R FOG
FOND DU LAC    CLOUDY    48  46  93 CALM      30.04R
$$

WIZ022-050-052-241400-
EAST CENTRAL WISCONSIN

CITY           SKY/WX    TMP DP  RH WIND       PRES   REMARKS
STURGEON BAY   CLOUDY    48  45  87 SW5       30.02S
MANITOWOC      CLOUDY    49  48  97 W3        30.04R FOG
SHEBOYGAN      CLOUDY    49  46  90 W5        30.04R
$$

LMZ563-521-522-541>543-241400-
LAKESHORE

STATION/POSITION TIME  TEMP    WIND        PRES    VSBY  WAVE
                       AIR SEA DIR/SP/G                  HT/PER
                 (UTC) (F)     (DEG/KT/KT) (MB)    (MI)  (FT/S)
SHEBOYGAN LKSHOR 1300   49 50  280/  6/  8 1017.8R
KEWAUNEE LKSHORE 1300   49     260/  3/  4 1015.7S
ALGOMA MARINA    1200          270/  2/  3   N/A
TWO RIVERS CG    1200   48 52              1016.8      6   1
NORTHPORT PIER   1300   49     220/  1/  3 1016.3R
N MID LAKE BUOY  1300   50 51  230/  8/ 10 1016.2R         2/ 5
SISTER BAY LKSHO 1200             CALM       N/A
STURGEON BAY CG  1200   48 50  280/  2     1016.5      6   1
CHAMBERS ISLAND  1300   48     200/  4/  8 1016.3S
MENOMINEE LKSHOR 1300   47     250/  8/ 10 1016.9R
$$



USA.gov is the U.S. government's official web portal to all federal, state and local government web resources and services.